N3WAX-1 Weather Reports


Display with metric or nautical units.
time (UTC)temp
F
wind
direction
speed
MPH
gust
MPH
rain 1hr
in
rain 24hr
in
rain mn
in
humidity
%
barometer
mb
20260506222003 66 171 3.0 14.0 0.00 0.13 0.13 86 1008.5
20260506221504 66 144 3.0 12.0 0.00 0.13 0.13 86 1008.5
20260506221004 66 177 3.0 10.0 0.00 0.13 0.13 86 1008.4
20260506220506 66 176 4.0 10.0 0.00 0.13 0.13 86 1008.2
20260506220000 67 180 4.0 10.0 0.00 0.13 0.13 86 1008.2
20260506215717 67 142 4.0 11.0 0.00 0.13 0.13 86 1008.1
20260506214944 67 128 4.0 12.0 0.00 0.13 0.13 86 1008.1
20260506214438 67 119 4.0 12.0 0.00 0.13 0.13 86 1008.2
20260506213928 67 163 3.0 13.0 0.00 0.13 0.13 86 1008.1
20260506213422 67 155 4.0 13.0 0.00 0.13 0.13 86 1008.1
20260506212916 67 136 3.0 9.0 0.00 0.13 0.13 86 1008.1
20260506212407 67 149 2.0 9.0 0.00 0.13 0.13 86 1007.9
20260506211900 66 161 2.0 9.0 0.00 0.13 0.13 87 1007.9
20260506211618 66 157 2.0 9.0 0.00 0.13 0.13 87 1007.9
20260506210856 66 95 2.0 7.0 0.00 0.13 0.13 87 1007.9
20260506210354 66 171 3.0 12.0 0.00 0.13 0.13 87 1008.0
20260506205854 66 178 4.0 12.0 0.00 0.13 0.13 87 1007.9
20260506205354 66 192 5.0 12.0 0.00 0.13 0.13 88 1007.9
20260506204852 66 161 4.0 13.0 0.00 0.13 0.13 87 1007.9
20260506204353 66 182 4.0 13.0 0.00 0.13 0.13 87 1007.9
20260506203853 66 218 6.0 12.0 0.00 0.13 0.13 87 1007.9
20260506203627 66 171 6.0 14.0 0.00 0.13 0.13 87 1007.9
20260506202853 66 156 6.0 17.0 0.00 0.13 0.13 87 1007.9
20260506202353 66 158 5.0 17.0 0.00 0.13 0.13 87 1007.8
20260506201854 66 116 5.0 15.0 0.00 0.13 0.13 87 1007.8
20260506201620 66 187 6.0 14.0 0.00 0.13 0.13 88 1007.8
20260506200854 66 158 5.0 13.0 0.00 0.13 0.13 88 1007.7
20260506200354 65 177 5.0 13.0 0.00 0.13 0.13 88 1007.7
20260506195853 65 151 4.0 17.0 0.00 0.13 0.13 88 1007.8
20260506195353 65 196 5.0 17.0 0.00 0.13 0.13 89 1007.8
20260506194852 65 138 7.0 17.0 0.00 0.13 0.13 88 1007.8
20260506194353 65 166 7.0 17.0 0.00 0.13 0.13 88 1008.0
20260506193853 65 115 7.0 20.0 0.00 0.13 0.13 88 1008.1
20260506193353 65 162 6.0 20.0 0.00 0.13 0.13 88 1008.2
20260506192853 65 302 6.0 16.0 0.00 0.13 0.13 90 1008.0
20260506192352 65 149 6.0 16.0 0.00 0.13 0.13 90 1008.1
20260506191852 64 145 6.0 18.0 0.00 0.13 0.13 92 1008.3
20260506191353 64 175 6.0 18.0 0.00 0.13 0.13 91 1008.1
20260506190853 63 155 6.0 18.0 0.00 0.13 0.13 92 1008.4
20260506190620 63 159 5.0 14.0 0.00 0.13 0.13 92 1008.4
20260506190111 62 155 5.0 14.0 0.00 0.13 0.13 92 1008.4
20260506185953 62 196 5.0 14.0 0.00 0.13 0.13 92 1008.4
20260506184855 62 168 6.0 16.0 0.00 0.13 0.13 92 1008.5
20260506184354 62 163 6.0 16.0 0.00 0.13 0.13 92 1008.6
20260506184340 62 164 6.0 15.0 0.00 0.13 0.13 92 1008.5
20260506183353 62 173 6.0 16.0 0.00 0.13 0.13 92 1008.6
20260506182853 62 140 4.0 16.0 0.00 0.13 0.13 92 1008.6
20260506182354 62 180 5.0 15.0 0.00 0.13 0.13 92 1008.7
20260506181846 62 134 7.0 18.0 0.00 0.13 0.13 92 1008.6
20260506181605 62 159 8.0 18.0 0.00 0.13 0.13 92 1008.8
20260506180845 62 197 7.0 16.0 0.00 0.13 0.13 92 1008.8
20260506180344 61 195 7.0 21.0 0.00 0.13 0.13 92 1008.9
20260506175846 61 129 7.0 21.0 0.00 0.13 0.13 92 1008.8
20260506175344 61 161 8.0 21.0 0.00 0.13 0.13 92 1008.7
20260506174847 61 138 8.0 21.0 0.00 0.13 0.13 92 1008.8
20260506174348 61 219 8.0 17.0 0.00 0.13 0.13 93 1008.7
20260506173848 61 191 8.0 17.0 0.00 0.13 0.13 93 1008.8
20260506173337 61 160 9.0 22.0 0.00 0.13 0.13 93 1008.7
20260506173056 61 172 8.0 22.0 0.00 0.13 0.13 92 1008.9
20260506172549 61 115 7.0 24.0 0.00 0.13 0.13 92 1008.9
20260506171813 61 92 9.0 24.0 0.00 0.13 0.13 92 1008.9
20260506171524 61 142 8.0 22.0 0.00 0.13 0.13 92 1008.8
20260506171021 61 141 8.0 22.0 0.00 0.13 0.13 93 1008.8
20260506170511 61 173 9.0 20.0 0.00 0.13 0.13 93 1008.9
20260506165744 61 146 8.0 18.0 0.01 0.13 0.13 93 1009.0
20260506165458 61 116 7.0 24.0 0.01 0.13 0.13 93 1009.0
20260506164728 61 153 7.0 24.0 0.02 0.13 0.13 93 1009.0
20260506164222 61 142 8.0 24.0 0.02 0.13 0.13 93 1009.0
20260506163716 61 288 9.0 21.0 0.03 0.13 0.13 93 1009.0
20260506163206 61 142 9.0 22.0 0.03 0.13 0.13 93 1009.0
20260506162659 61 135 8.0 22.0 0.04 0.13 0.13 94 1009.1
20260506162153 61 128 8.0 21.0 0.04 0.13 0.13 93 1009.1
20260506161643 61 146 9.0 19.0 0.05 0.13 0.13 93 1009.2
20260506161137 61 110 9.0 18.0 0.05 0.13 0.13 93 1009.2
20260506160632 61 171 8.0 17.0 0.06 0.13 0.13 93 1009.2
20260506160121 61 109 7.0 20.0 0.06 0.13 0.13 93 1009.0
20260506160105 61 105 6.0 20.0 0.06 0.12 0.12 93 1009.2
20260506155109 60 156 6.0 15.0 0.06 0.12 0.12 93 1009.7
20260506154559 60 175 6.0 15.0 0.06 0.11 0.11 93 1009.8
20260506154054 60 135 5.0 16.0 0.07 0.11 0.11 93 1009.9
20260506153548 61 180 5.0 16.0 0.06 0.10 0.10 93 1010.1
20260506153037 60 161 6.0 17.0 0.07 0.10 0.10 93 1010.2
20260506152531 60 135 7.0 18.0 0.07 0.09 0.09 92 1010.2
20260506152025 60 141 7.0 18.0 0.06 0.08 0.08 92 1010.2
20260506151515 60 229 6.0 14.0 0.06 0.08 0.08 92 1010.3
20260506151010 60 190 5.0 14.0 0.07 0.08 0.08 92 1010.2
20260506150504 60 157 5.0 13.0 0.06 0.07 0.07 91 1010.1
20260506145954 60 141 6.0 13.0 0.07 0.07 0.07 91 1009.9
20260506145715 60 178 6.0 15.0 0.06 0.06 0.06 90 1009.9
20260506145212 60 118 5.0 15.0 0.05 0.05 0.06 90 1009.9
20260506144431 61 152 5.0 16.0 0.04 0.04 0.04 90 1009.9
20260506143926 61 136 5.0 16.0 0.04 0.04 0.04 89 1009.8
20260506143420 61 105 5.0 12.0 0.03 0.03 0.04 89 1010.0
20260506142910 61 177 5.0 15.0 0.03 0.03 0.03 89 1010.2
20260506142403 62 160 5.0 15.0 0.02 0.02 0.02 89 1010.2
20260506141857 62 166 5.0 15.0 0.02 0.02 0.02 89 1010.1
20260506141347 62 93 6.0 18.0 0.01 0.01 0.02 89 1010.1
20260506140842 62 151 5.0 18.0 0.01 0.01 0.01 87 1010.1
20260506140335 62 163 5.0 15.0 0.00 0.00 0.01 87 1010.1
20260506135826 62 70 5.0 15.0 0.00 0.00 0.00 85 1010.2
20260506135319 63 157 5.0 19.0 0.00 0.00 0.00 84 1010.2
20260506134814 63 175 6.0 19.0 0.00 0.00 0.00 84 1010.1
20260506134303 63 175 7.0 20.0 0.00 0.00 0.00 83 1010.1
20260506133757 63 157 8.0 20.0 0.00 0.00 0.00 83 1009.9
20260506133251 63 152 7.0 17.0 0.00 0.00 0.00 83 1009.9
20260506132748 63 140 7.0 19.0 0.00 0.00 0.00 83 1010.0
20260506132248 64 129 7.0 19.0 0.00 0.00 0.00 83 1009.9
20260506131748 64 132 5.0 19.0 0.00 0.00 0.00 83 1009.9
20260506131247 63 167 7.0 19.0 0.00 0.00 0.00 83 1009.9
20260506130749 63 111 8.0 22.0 0.00 0.00 0.00 83 1010.0
20260506130505 63 161 8.0 22.0 0.00 0.00 0.00 82 1010.1
20260506125748 63 126 8.0 18.0 0.00 0.00 0.00 82 1010.1
20260506125248 63 154 9.0 19.0 0.00 0.00 0.00 82 1010.2
20260506124748 63 142 9.0 24.0 0.00 0.00 0.00 82 1010.2
20260506124249 64 142 9.0 24.0 0.00 0.00 0.00 82 1010.4
20260506124012 64 123 8.0 23.0 0.00 0.00 0.00 82 1010.4
20260506123248 64 170 7.0 21.0 0.00 0.00 0.00 81 1010.3
20260506123009 64 105 9.0 22.0 0.00 0.00 0.00 81 1010.4
20260506122243 64 126 9.0 22.0 0.00 0.00 0.00 81 1010.2
20260506121737 64 129 10.0 21.0 0.00 0.00 0.00 82 1010.3
20260506121227 64 136 9.0 20.0 0.00 0.00 0.00 81 1010.3
20260506120720 64 153 9.0 21.0 0.00 0.00 0.00 82 1010.3
20260506120214 64 194 9.0 25.0 0.00 0.00 0.00 81 1010.2
20260506115706 64 157 8.0 25.0 0.00 0.00 0.00 81 1010.1
20260506115206 64 194 8.0 23.0 0.00 0.00 0.00 81 1010.0
20260506114706 64 143 10.0 23.0 0.00 0.00 0.00 81 1010.0
20260506114423 64 134 9.0 22.0 0.00 0.00 0.00 81 1009.9
20260506113705 64 146 8.0 24.0 0.00 0.00 0.00 81 1009.8
20260506113207 64 153 10.0 24.0 0.00 0.00 0.00 81 1009.9
20260506112929 64 113 9.0 21.0 0.00 0.00 0.00 82 1009.8
20260506112205 64 173 8.0 21.0 0.00 0.00 0.00 81 1009.6
20260506111931 64 106 9.0 23.0 0.00 0.00 0.00 81 1009.8
20260506111428 64 175 9.0 23.0 0.00 0.00 0.00 81 1009.7
20260506110706 64 220 7.0 17.0 0.00 0.00 0.00 82 1009.8
20260506110429 63 196 8.0 21.0 0.00 0.00 0.00 82 1009.7
20260506105705 63 173 9.0 21.0 0.00 0.00 0.00 82 1009.6
20260506105206 63 150 7.0 18.0 0.00 0.00 0.00 82 1009.6
20260506104928 63 123 7.0 24.0 0.00 0.00 0.00 82 1009.7
20260506104414 63 111 9.0 23.0 0.00 0.00 0.00 82 1009.4
20260506104301 63 165 8.0 24.0 0.00 0.00 0.00 82 1009.6
20260506103207 63 111 8.0 23.0 0.00 0.00 0.00 82 1009.4
20260506102703 63 113 8.0 22.0 0.00 0.00 0.00 82 1009.4
20260506102202 63 186 7.0 19.0 0.00 0.00 0.00 82 1009.4
20260506101703 63 182 8.0 20.0 0.00 0.00 0.00 82 1009.4
20260506101201 63 155 8.0 20.0 0.00 0.00 0.00 82 1009.6
20260506100702 63 113 7.0 19.0 0.00 0.00 0.00 82 1009.4
20260506100202 63 200 8.0 28.0 0.00 0.00 0.00 82 1009.6
20260506095701 63 165 8.0 28.0 0.00 0.00 0.00 82 1009.4
20260506095202 63 173 7.0 18.0 0.00 0.00 0.00 81 1009.4
20260506094704 63 137 7.0 24.0 0.00 0.00 0.00 82 1009.2
20260506094158 63 155 7.0 24.0 0.00 0.00 0.00 81 1009.3
20260506093649 64 137 8.0 21.0 0.00 0.00 0.00 81 1009.4
20260506093142 64 132 9.0 21.0 0.00 0.00 0.00 81 1009.4
20260506092636 64 180 8.0 19.0 0.00 0.00 0.00 80 1009.6
20260506092127 64 154 9.0 25.0 0.00 0.00 0.00 80 1009.6
20260506092116 64 106 9.0 25.0 0.00 0.00 0.00 80 1009.7
20260506091341 64 139 8.0 18.0 0.00 0.00 0.00 80 1009.6
20260506090605 64 104 9.0 18.0 0.00 0.00 0.00 79 1009.6
20260506090059 64 152 10.0 19.0 0.00 0.00 0.00 79 1009.6
20260506085553 65 157 8.0 19.0 0.00 0.00 0.00 79 1009.7
20260506085043 65 186 7.0 17.0 0.00 0.00 0.00 79 1009.6
20260506084536 65 104 8.0 18.0 0.00 0.00 0.00 78 1009.6
20260506084031 65 123 7.0 19.0 0.00 0.00 0.00 78 1009.6
20260506083519 65 163 7.0 19.0 0.00 0.00 0.00 78 1009.7
20260506083231 65 164 7.0 20.0 0.00 0.00 0.00 78 1009.7
20260506082730 65 89 8.0 21.0 0.00 0.00 0.00 78 1009.4
20260506082226 65 182 8.0 21.0 0.00 0.00 0.00 78 1009.7
20260506081450 65 121 8.0 19.0 0.00 0.00 0.00 78 1009.6
20260506080944 65 133 7.0 19.0 0.00 0.00 0.00 78 1009.7
20260506080443 65 133 7.0 19.0 0.00 0.00 0.00 78 1009.6
20260506073201 66 174 6.0 18.0 0.00 0.00 0.00 77 1009.8
20260506072443 66 132 6.0 18.0 0.00 0.00 0.00 77 1009.9
20260506071943 66 163 4.0 18.0 0.00 0.00 0.00 76 1009.9
20260506071447 66 155 6.0 13.0 0.00 0.00 0.00 76 1009.9
20260506071440 66 146 7.0 14.0 0.00 0.00 0.00 76 1009.8
20260506070447 66 197 7.0 16.0 0.00 0.00 0.00 75 1009.9
20260506062418 66 140 5.0 14.0 0.00 0.00 0.00 73 1010.3
20260506061918 66 98 6.0 14.0 0.00 0.00 0.00 73 1010.4
20260506061417 66 133 6.0 15.0 0.00 0.00 0.00 73 1010.3
20260506060916 66 132 5.0 15.0 0.00 0.00 0.00 72 1010.4
20260506060422 66 112 6.0 14.0 0.00 0.00 0.00 71 1010.3
20260506051412 67 111 6.0 13.0 0.00 0.00 0.00 68 1010.8
20260506051130 67 118 6.0 18.0 0.00 0.00 0.00 68 1010.7
20260506050412 67 96 5.0 18.0 0.00 0.00 0.00 68 1010.7
20260506044908 67 157 4.0 15.0 0.00 0.00 0.00 67 1010.8
20260506044408 67 82 6.0 15.0 0.00 0.00 0.00 67 1010.8
20260506043907 67 144 6.0 15.0 0.00 0.00 0.00 67 1010.8
20260506043410 67 152 5.0 11.0 0.00 0.00 0.00 67 1010.8
20260506042909 67 145 5.0 12.0 0.00 0.00 0.00 67 1010.8
20260506042412 67 149 5.0 14.0 0.00 0.00 0.00 67 1010.8
20260506041912 67 154 5.0 14.0 0.00 0.00 0.00 67 1010.9
20260506041408 67 146 5.0 14.0 0.00 0.00 0.00 66 1010.9
20260506040907 67 160 5.0 14.0 0.00 0.00 0.00 66 1010.9
20260506040406 67 138 5.0 13.0 0.00 0.00 0.00 66 1010.9
20260506035903 67 128 6.0 15.0 0.00 0.00 0.00 65 1010.9
20260506035405 67 167 6.0 15.0 0.00 0.00 0.00 65 1010.9
20260506034904 67 128 5.0 14.0 0.00 0.00 0.00 65 1010.8
20260506034405 67 200 5.0 14.0 0.00 0.00 0.00 65 1010.8
20260506033904 67 150 5.0 14.0 0.00 0.00 0.00 65 1010.8
20260506033404 67 103 5.0 14.0 0.00 0.00 0.00 65 1010.8
20260506032903 67 188 5.0 14.0 0.00 0.00 0.00 65 1010.8
20260506032404 67 140 4.0 12.0 0.00 0.00 0.00 65 1010.8
20260506031904 67 211 4.0 11.0 0.00 0.00 0.00 65 1010.8
20260506031404 67 130 5.0 12.0 0.00 0.00 0.00 65 1010.8
20260506030904 67 96 5.0 12.0 0.00 0.00 0.00 65 1010.9
20260506030622 68 114 5.0 13.0 0.00 0.00 0.00 65 1010.8
20260506025903 68 142 5.0 13.0 0.00 0.00 0.00 64 1010.9
20260506025405 68 126 5.0 15.0 0.00 0.00 0.00 64 1010.9
20260506024903 68 170 6.0 15.0 0.00 0.00 0.00 64 1010.9
20260506024405 68 112 5.0 14.0 0.00 0.00 0.00 64 1011.1
20260506023904 68 111 5.0 14.0 0.00 0.00 0.00 64 1011.1
20260506023628 68 132 5.0 14.0 0.00 0.00 0.00 64 1011.1
20260506022902 68 101 3.0 8.0 0.00 0.00 0.00 64 1011.1
20260506022623 68 129 4.0 12.0 0.00 0.00 0.00 63 1011.1
20260506021858 68 107 5.0 12.0 0.00 0.00 0.00 63 1011.0
20260506021358 68 118 5.0 11.0 0.00 0.00 0.00 62 1011.0
20260506020858 69 148 5.0 12.0 0.00 0.00 0.00 62 1011.1
20260506020616 69 82 5.0 12.0 0.00 0.00 0.00 62 1011.0
20260506015857 69 135 5.0 10.0 0.00 0.00 0.00 61 1011.0
20260506015401 69 101 4.0 10.0 0.00 0.00 0.00 61 1010.9
20260506014854 69 138 4.0 12.0 0.00 0.00 0.00 61 1010.8
20260506014345 69 143 5.0 12.0 0.00 0.00 0.00 61 1010.9
20260506013840 69 156 5.0 16.0 0.00 0.00 0.00 60 1010.8
20260506013333 69 94 5.0 16.0 0.00 0.00 0.00 60 1010.8
20260506012823 70 134 5.0 13.0 0.00 0.00 0.00 60 1010.8
20260506012317 70 140 4.0 13.0 0.00 0.00 0.00 59 1010.7
20260506011811 70 126 5.0 12.0 0.00 0.00 0.00 59 1010.7
20260506011300 70 109 5.0 13.0 0.00 0.00 0.00 58 1010.6
20260506011019 71 106 6.0 13.0 0.00 0.00 0.00 58 1010.4
20260506010730 71 167 6.0 12.0 0.00 0.00 0.00 57 1010.5
20260506005738 71 126 5.0 12.0 0.00 0.00 0.00 57 1010.4
20260506005232 71 144 6.0 15.0 0.00 0.00 0.00 57 1010.4
20260506004948 71 118 6.0 15.0 0.00 0.00 0.00 56 1010.3
20260506004217 72 96 6.0 16.0 0.00 0.00 0.00 55 1010.4
20260506003710 72 112 7.0 16.0 0.00 0.00 0.00 54 1010.2
20260506003204 72 150 6.0 15.0 0.00 0.00 0.00 54 1010.1
20260506002921 72 147 6.0 14.0 0.00 0.00 0.00 54 1010.1
20260506002149 72 130 6.0 14.0 0.00 0.00 0.00 53 1010.1
20260506001642 72 92 5.0 11.0 0.00 0.00 0.00 53 1010.0
20260506001133 72 177 5.0 12.0 0.00 0.00 0.00 52 1010.0
20260506000626 73 126 5.0 16.0 0.00 0.00 0.00 51 1009.9
20260506000344 73 113 5.0 16.0 0.00 0.00 0.00 51 1009.9
20260505235611 73 144 4.0 13.0 0.00 0.00 0.00 52 1009.7
20260505235104 74 105 5.0 13.0 0.00 0.00 0.00 50 1009.7
20260505234558 74 115 6.0 16.0 0.00 0.00 0.00 50 1009.6
20260505234048 74 108 7.0 16.0 0.00 0.00 0.00 49 1009.7
20260505233543 74 168 7.0 17.0 0.00 0.00 0.00 49 1009.4
20260505233036 74 147 7.0 17.0 0.00 0.00 0.00 49 1009.6
20260505232527 74 163 7.0 15.0 0.00 0.00 0.00 50 1009.6
20260505232025 74 170 7.0 16.0 0.00 0.00 0.00 49 1009.7
20260505231514 75 171 7.0 17.0 0.00 0.00 0.00 49 1009.7
20260505231005 75 153 7.0 17.0 0.00 0.00 0.00 48 1009.7
20260505230459 75 153 7.0 16.0 0.00 0.00 0.00 48 1009.7
20260505225952 75 114 6.0 16.0 0.00 0.00 0.00 48 1009.6
20260505225443 76 123 6.0 15.0 0.00 0.00 0.00 48 1009.7
20260505224936 76 180 7.0 20.0 0.00 0.00 0.00 47 1009.6
20260505224650 76 185 8.0 20.0 0.00 0.00 0.00 48 1009.6
20260505223917 76 123 7.0 20.0 0.00 0.00 0.00 47 1009.6
20260505223412 77 132 7.0 15.0 0.00 0.00 0.00 47 1009.6
20260505222905 77 150 7.0 18.0 0.00 0.00 0.00 46 1009.8
20260505222355 78 113 6.0 18.0 0.00 0.00 0.00 47 1009.7